COSMOS 1275 DEB, 13477

Orbit data source: Space-Track

COSMOS 1275 DEB, 13477 is space debris in LEO originally from a launch on Thu, 04 Jun 1981 UTC launched from the Plesetsk Missile And Space Complex (PKMTR). Debris objects in space refer to the collection of defunct objects orbiting the Earth. Examples of debris include non-operational satellites, rocket bodies, and fragments generated from explosions, collisions, or faulty payload assembly.

Loading next visibility...
Identifier
13477, 1981-053FX
Orbit
LEO
Country
Flag of CISCIS
Related business
Manufacturer
Unknown
Mission
Spacecraft
Bus & Motor
Unknown
Mass
Unknown
Launch date (UTC)
1981-06-04 (45 years ago)
Launch vehicle
Unknown
Launch site
Plesetsk Missile And Space Complex (PKMTR)
Object type
Payload
Rocket body
Debris
Shape & HBR
Unknown shape, 0.1 m
Radar Cross Section
Small (<0.1 m²)

Expand to show TLE details & history
Last TLE update: 10 hours ago

TLE from 10 hours ago
0 COSMOS 1275 DEB
1 13477U 81053FX  25353.23222300  .00005536  00000-0  17878-2 0  9993
2 13477  82.9912  84.3762 0053588 161.0526 199.2676 14.38190106219516
Epoch: 2025-12-19T05:34Z
TLE epoch observation values (Epoch: 2025-12-19T05:34:24.067Z)
Latitude
-0.00004°
Longitude
-87.30042°
Altitude
803.635 km
Speed
7.433 km/s
True Right ascension
05h 37m 30s
True Declination
0° 00' 00"
Sunlit
Object was in full shadow at epoch
Visualization orbit readout
Latitude
Unknown
Longitude
Unknown
Altitude
Unknown
Speed
Unknown
Apparent Right ascension
Unknown
Apparent Declination
Unknown
Sunlit
N/A
Visualization observer readout
Local Sidereal Time
14:08:00
Azimuth
Unknown
Elevation
Unknown
Doppler factor
Unknown
Orbital elements
Apogee altitude
799.805 km
Perigee altitude
723.284 km
Semi-major axis
7,139.681 km
Eccentricity
0.00536
Inclination
82.9912°
RAAN
84.3762°
Arg. of periapsis
161.0526°
True anomaly
199.06624°
Mean anomaly
199.2676°
Eccentric anomaly
199.16679°
Mean motion
3.5977 °/min
Orbital period
100.06 mins
BSTAR
0.0017878
Loading maneuver chart data...
Computing Atmospheric mass density...
Loading historical data...
Loading historical data...
Loading historical data...
Loading historical data...
Loading historical data...
Loading historical data...
Loading historical data...

Documentation

Showing up to 5 results
|